#timestamp,LO_Frequency,Hit,StdDev 
1682611215.5,286047000.8,N
1682611235.3,286046999.3,N
1682611255.1,286046999.3,N
1682611275.9,286046999.5,N
1682611295.7,286046999.4,N
1682611315.5,286046999.0,N
1682611335.4,286046998.8,N
1682611355.2,286046999.6,N
1682611375.1,286046996.7,Y
1682611376.0,286046996.7,P
1682611395.8,286046996.9,N
1682611415.6,286046996.6,N
1682611435.5,286047001.2,N
1682611455.3,286046996.5,N
1682611475.1,286046999.4,N
1682611495.9,286046999.6,N
1682611515.7,286046995.9,N
1682611535.6,286046996.3,N
1682611555.4,286046997.4,N
1682611575.2,286046995.0,N
1682611595.1,286046997.2,N
1682611596.0,286046997.2,N
1682611615.8,286046999.2,N
1682611635.6,286047001.1,N
1682611655.5,286047000.2,N
1682611675.3,286047000.5,N
1682611695.1,286047000.5,N
1682611715.9,286047000.3,N
1682611735.7,286046998.6,N
1682611755.6,286047002.7,N
1682611775.4,286047001.6,N
1682611795.2,286047002.5,N
1682611815.1,286046998.5,N
1682611816.0,286046998.5,N
1682611835.8,286046998.5,N
1682611855.6,286047001.0,N
1682611875.5,286046996.8,N
1682611895.3,286046995.4,N
1682611915.2,286046997.3,N
1682611935.9,286046996.5,N
1682611955.7,286046995.0,N
1682611975.6,286046993.4,Y
1682611995.4,286046996.0,P
1682612015.2,286046996.4,N
1682612035.1,286046995.8,P
1682612036.0,286046995.8,Y
1682612055.8,286046998.1,P
1682612075.7,286046998.1,N
1682612095.5,286047000.7,N
1682612115.3,286047000.8,N
1682612135.2,286047001.2,N
1682612155.0,286046998.4,N
1682612155.9,286046998.4,N
1682612175.7,286047000.6,N
1682612195.6,286046999.7,N
1682612215.4,286047002.4,N
1682612235.3,286046999.7,N
1682612255.1,286046999.7,N
1682612256.0,286046999.7,N
1682612275.8,286047002.6,N
1682612295.7,286047004.0,N
1682612315.5,286047002.1,N
1682612335.3,286047001.8,N
1682612355.2,286046999.7,N
1682612375.0,286046998.6,N
1682612375.9,286046998.6,N
1682612395.8,286047000.3,N
1682612415.6,286047002.0,N
1682612435.4,286047001.3,N
1682612455.3,286047003.1,N
1682612475.1,286047003.2,N
1682612495.8,286047003.3,N
1682612515.7,286047003.8,N
1682612535.5,286047005.4,N
1682612555.4,286047004.0,N
1682612575.2,286047001.5,N
1682612595.0,286047003.9,N
1682612595.9,286047003.9,N
1682612615.8,286047004.1,N
1682612635.6,286047003.5,N
1682612655.4,286047001.6,N
1682612675.3,286047002.4,N
1682612695.1,286047001.4,N
1682612715.9,286047002.1,N
1682612735.7,286047002.6,N
1682612755.5,286047000.1,N
1682612775.4,286046998.8,N
1682612795.2,286046998.8,N
1682612815.0,286047000.9,N
1682612815.9,286047000.9,N
1682612835.8,286047000.8,N
1682612855.6,286047001.2,N
1682612875.5,286046999.2,N
1682612895.3,286046998.9,N
1682612915.1,286046998.2,N
1682612935.9,286047001.1,N
1682612955.7,286047000.9,N
1682612975.5,286047000.9,N
1682612995.4,286047001.0,N
1682613015.2,286046998.6,N
1682613035.1,286047000.8,N
1682613036.0,286047000.8,N
1682613055.8,286046998.3,N
1682613075.6,286047000.6,N
1682613095.5,286046998.5,N
1682613115.3,286047000.1,N
1682613135.1,286046998.8,N
1682613155.9,286046996.9,N
1682613175.7,286046997.5,N
1682613195.6,286046996.8,N
1682613215.4,286047000.7,N
1682613235.2,286046999.9,N
1682613255.1,286047000.1,N
1682613256.0,286047000.1,N
1682613275.8,286047000.5,N
1682613295.6,286047002.7,N
1682613315.5,286047000.5,N
1682613335.3,286046999.9,N
1682613355.2,286047001.8,N
1682613375.9,286047004.2,N
1682613395.7,286047006.0,Y
1682613415.6,286047003.2,P
1682613435.4,286047006.0,P
1682613455.2,286047002.9,N
1682613475.1,286047005.1,N
1682613476.0,286047005.1,N
1682613495.8,286047005.8,N
1682613515.7,286047001.5,N
1682613535.5,286047002.6,N
1682613555.3,286047003.7,N
1682613575.2,286047003.1,N
1682613595.0,286047003.6,N
1682613595.9,286047003.6,N
1682613615.7,286047003.1,N
1682613635.6,286047003.4,N
1682613655.4,286047004.3,N
1682613675.3,286047003.6,N
1682613695.1,286047004.0,N
1682613715.8,286047002.6,N
1682613735.7,286047002.5,N
1682613755.5,286047001.3,N
1682613775.4,286047003.9,N
1682613795.2,286047001.4,N
1682613815.0,286047001.3,N
1682613815.9,286047001.3,N
1682613835.8,286047003.2,N
1682613855.6,286047001.7,N
1682613875.4,286047002.4,N
1682613895.3,286047001.1,N
1682613915.1,286046996.6,N
1682613935.9,286046997.3,N
1682613955.7,286046997.9,N
1682613975.5,286046997.6,N
1682613995.4,286046997.2,N
1682614015.2,286046997.8,N
1682614035.0,286046996.6,N
1682614035.9,286046996.6,N
1682614055.8,286047000.8,N
1682614075.6,286046999.9,N
1682614095.4,286047002.8,N
1682614115.3,286047000.9,N
1682614135.1,286047001.1,N
1682614155.9,286047000.5,N
1682614175.7,286047000.6,N
1682614195.5,286047001.1,N
1682614215.4,286046998.7,N
1682614235.2,286046998.9,N
1682614255.0,286046997.3,N
1682614255.9,286046997.3,N
1682614275.8,286046997.1,N
1682614295.6,286046996.7,N
1682614315.5,286046997.3,N
1682614335.3,286046999.6,N
1682614355.1,286047000.2,N
1682614375.9,286046999.7,N
1682614395.7,286047002.0,N
1682614415.5,286047003.1,N
1682614465.4,286047005.3,E
1682614475.3,286047002.9,N
1682614495.2,286047002.8,P
1682614515.0,286046999.9,N
1682614515.9,286046999.9,N
1682614535.7,286046999.0,N
1682614555.6,286046998.3,N
1682614575.4,286046999.1,N
1682614595.3,286046999.4,N
1682614615.1,286046998.7,N
1682614616.0,286046998.7,N
1682614635.8,286046996.8,N
1682614655.7,286046997.6,N
1682614675.5,286046995.0,N
1682614695.3,286046995.1,N
1682614715.2,286046994.9,N
1682614735.0,286046995.1,N
1682614735.9,286046995.1,N
1682614755.8,286046995.2,N
1682614775.6,286046993.5,N
1682614795.4,286046996.3,N
